Jackson, MI

9:39 PM EST on November 15, 2019 (GMT -0500)
Jackson County-Reynolds

Weather History for KJXN - August, 2019

Change the Weather History Date:

Tuesday, August 13, 2019

  Actual Average Record
Temperature  
Mean Temperature 76 °F 70 °F  
Max Temperature 86 °F 81 °F 94 °F (1978)
Min Temperature 65 °F 60 °F 47 °F (1954)
Degree Days  
Heating Degree Days 0 1  
Month to date heating degree days 0 9  
Since 1 June heating degree days 58 75  
Since 1 July heating degree days 0 20  
Cooling Degree Days 11 6  
Month to date cooling degree days 73 78  
Year to date cooling degree days 478 443  
Since 1 June cooling degree days 468 406  
Growing Degree Days 27 (Base 50)    
Moisture  
Dew Point 67 °F    
Average Humidity 74    
Maximum Humidity 100    
Minimum Humidity 48    
Precipitation  
Precipitation T in 0.11 in 0.49 in (2004)
Month to date precipitation 0.22 1.49  
Year to date precipitation 20.41 18.94  
Sea Level Pressure  
Sea Level Pressure 29.81 in    
Wind  
Wind Speed 5 mph (North)    
Max Wind Speed 12 mph    
Max Gust Speed 17 mph    
Visibility 7 miles    
Events Rain    
T = Trace of Precipitation, MM = Missing Value Source: NWS Daily Summary

Daily Weather History Graph

Daily Weather History Graph

Search for Another Location

Airport or City:

Astronomy

Aug. 13, 2019 Rise Set
Actual Time 6:42 AM EDT 8:41 PM EDT
Civil Twilight 6:12 AM EDT 9:12 PM EDT
Nautical Twilight 5:35 AM EDT 9:49 PM EDT
Astronomical Twilight 4:54 AM EDT 10:29 PM EDT
Moon 7:58 PM EDT (8/13) 4:41 AM EDT (8/13)
Length of Visible Light 14h 59m
Length of Day
13h 58m
Waxing Gibbous, 97% of the Moon is Illuminated
Aug 13
Waxing Gibbous
Aug 15
Full
Aug 23
Last Quarter
Aug 30
New
Sep 5
First Quarter

Hourly Weather History & Observations

Time (EDT) Temp. Heat Index Dew Point Humidity Pressure Visibility Wind Dir Wind Speed Gust Speed Precip Events Conditions
12:39 AM 72.0 °F - 70.0 °F 93% 29.83 in 10.0 mi SSW 4.6 mph - N/A   Overcast
12:56 AM 72.0 °F - 71.1 °F 97% 29.81 in 10.0 mi South 3.5 mph - N/A   Overcast
1:08 AM 72.0 °F - 71.1 °F 97% 29.82 in 10.0 mi Calm Calm - N/A   Overcast
1:42 AM 71.1 °F - 71.1 °F 100% 29.81 in 10.0 mi SSW 3.5 mph - 0.00 in Rain Light Rain
1:54 AM 71.6 °F - 71.6 °F 100% 29.80 in 9.0 mi SSW 4.6 mph - 0.00 in   Mostly Cloudy
1:56 AM 71.1 °F - 71.1 °F 100% 29.78 in 9.0 mi SSW 4.6 mph - 0.00 in   Overcast
2:23 AM 71.1 °F - 71.1 °F 100% 29.80 in 9.0 mi Calm Calm - N/A   Overcast
2:56 AM 71.1 °F - 71.1 °F 100% 29.77 in 6.0 mi South 3.5 mph - N/A   Overcast
3:56 AM 72.0 °F - 71.1 °F 97% 29.76 in 2.5 mi West 3.5 mph - N/A   Overcast
4:03 AM 72.0 °F - 71.1 °F 97% 29.79 in 3.0 mi Variable 3.5 mph - N/A   Overcast
4:18 AM 72.0 °F - 71.1 °F 97% 29.79 in 2.5 mi Calm Calm - N/A   Overcast
4:35 AM 72.0 °F - 71.1 °F 97% 29.78 in 1.5 mi NW 3.5 mph - N/A   Overcast
4:46 AM 71.1 °F - 71.1 °F 100% 29.78 in 2.0 mi WNW 3.5 mph - N/A   Overcast
4:53 AM 71.6 °F - 71.6 °F 100% 29.78 in 1.2 mi Calm Calm - N/A   Overcast
4:56 AM 71.1 °F - 71.1 °F 100% 29.76 in 1.0 mi Calm Calm - N/A   Overcast
5:06 AM 71.1 °F - 71.1 °F 100% 29.78 in 0.8 mi Calm Calm - N/A   Overcast
5:13 AM 71.1 °F - 71.1 °F 100% 29.78 in 1.8 mi WNW 3.5 mph - N/A   Overcast
5:18 AM 71.1 °F - 71.1 °F 100% 29.78 in 3.0 mi Variable 3.5 mph - N/A   Overcast
5:45 AM 72.0 °F - 71.1 °F 97% 29.78 in 4.0 mi WNW 3.5 mph - N/A   Overcast
5:56 AM 72.0 °F - 71.1 °F 97% 29.77 in 4.0 mi Calm Calm - N/A   Overcast
6:56 AM 72.0 °F - 71.1 °F 97% 29.77 in 3.0 mi NNE 4.6 mph - N/A   Overcast
7:06 AM 72.0 °F - 71.1 °F 97% 29.79 in 1.8 mi Calm Calm - N/A   Overcast
7:19 AM 72.0 °F - 71.1 °F 97% 29.79 in 1.8 mi Calm Calm - N/A   Overcast
7:46 AM 72.0 °F - 71.1 °F 97% 29.79 in 3.0 mi NNE 5.8 mph - N/A   Overcast
7:56 AM 72.0 °F - 71.1 °F 97% 29.78 in 6.0 mi NE 6.9 mph - N/A   Overcast
8:56 AM 72.0 °F - 70.0 °F 93% 29.80 in 5.0 mi NE 5.8 mph - N/A   Overcast
9:56 AM 71.1 °F - 69.1 °F 93% 29.81 in 4.0 mi NNE 9.2 mph - N/A   Overcast
10:25 AM 72.0 °F - 69.1 °F 91% 29.83 in 7.0 mi NNE 5.8 mph - N/A   Overcast
10:56 AM 73.0 °F - 68.0 °F 84% 29.82 in 9.0 mi NNE 5.8 mph - N/A   Mostly Cloudy
11:28 AM 75.9 °F - 64.9 °F 69% 29.84 in 10.0 mi NNE 8.1 mph - N/A   Mostly Cloudy
11:56 AM 77.0 °F - 62.1 °F 60% 29.83 in 10.0 mi Variable 6.9 mph - N/A   Mostly Cloudy
12:12 PM 78.1 °F - 61.0 °F 56% 29.84 in 10.0 mi North 9.2 mph - N/A   Mostly Cloudy
12:56 PM 79.0 °F - 60.1 °F 52% 29.83 in 10.0 mi NE 9.2 mph - N/A   Mostly Cloudy
1:56 PM 81.0 °F 81.9 °F 62.1 °F 52% 29.81 in 10.0 mi Variable 6.9 mph - N/A   Clear
2:56 PM 82.9 °F 84.4 °F 64.0 °F 53% 29.80 in 10.0 mi Variable 3.5 mph - N/A   Scattered Clouds
3:56 PM 84.0 °F 84.9 °F 63.0 °F 49% 29.79 in 10.0 mi North - - N/A   Partly Cloudy
4:56 PM 84.9 °F 85.4 °F 62.1 °F 46% 29.81 in 10.0 mi Calm Calm - N/A   Partly Cloudy
5:56 PM 82.9 °F 83.7 °F 62.1 °F 49% 29.82 in 10.0 mi North 3.5 mph - N/A   Scattered Clouds
6:56 PM 82.9 °F 83.7 °F 62.1 °F 49% 29.82 in 10.0 mi Variable 6.9 mph - N/A   Mostly Cloudy
7:56 PM 80.1 °F 81.5 °F 63.0 °F 56% 29.83 in 10.0 mi North 5.8 mph - N/A   Mostly Cloudy
8:56 PM 77.0 °F - 62.1 °F 60% 29.84 in 10.0 mi NNW 4.6 mph - N/A   Partly Cloudy
9:56 PM 73.0 °F - 57.0 °F 57% 29.87 in 10.0 mi NNE 6.9 mph - N/A   Clear
10:56 PM 70.0 °F - 53.1 °F 55% 29.89 in 10.0 mi NNE 4.6 mph - N/A   Partly Cloudy
11:56 PM 66.9 °F - 53.1 °F 61% 29.89 in 10.0 mi NNE 4.6 mph - N/A   Clear